This demonstration page uses our WeatherBlox Daily Observations layout. Learn more.

Left ArrowRight Arrow

Hourly Observations for May 25, 2017

Temp ( °F °C ) Dew Point ( °F °C ) Humidity (%) Winds ( mph kmh ) Pressure ( in mb ) Visibility ( mi km ) Precip ( " mm )
12:15 am 00:15 Clear 53 11.6 43 6.2 70 70 SSE 15 24 29.62 1003 10 16 N/A
12:35 am 00:35 Clear 53 11.4 43 6.3 71 71 SSE 15 24 29.62 1003 10 16 N/A
12:55 am 00:55 Clear 52 11.1 43 6.3 73 73 SSE 15 24 29.62 1003 10 16 N/A
1:15 am 01:15 Clear 51 10.8 44 6.5 75 75 SSE 13 20 29.62 1003 10 16 N/A
1:35 am 01:35 Clear 51 10.8 44 6.5 75 75 SSE 13 20 29.59 1002 10 16 N/A
1:55 am 01:55 Clear 52 11 44 6.4 74 74 SSE 16 26 29.59 1002 10 16 N/A
2:15 am 02:15 Clear 52 11 43 6.2 73 73 SSE 16 26 29.59 1002 10 16 N/A
2:35 am 02:35 Clear 52 11.2 43 6 71 71 SSE 17 28 29.56 1001 10 16 N/A
2:55 am 02:55 Clear 52 11.2 43 6 71 71 S 17 28 29.56 1001 10 16 N/A
3:15 am 03:15 Clear 52 11 43 6 72 72 S 15 24 29.56 1001 10 16 N/A
3:35 am 03:35 Clear 51 10.8 43 6 72 72 S 15 24 29.56 1001 10 16 N/A
3:55 am 03:55 Clear 51 10.6 43 6.1 74 74 S 15 24 29.56 1001 10 16 N/A
4:15 am 04:15 Clear 51 10.5 43 6 74 74 S 14 22 29.56 1001 10 16 N/A
4:35 am 04:35 Clear 51 10.3 43 6 75 75 S 17 28 29.56 1001 10 16 N/A
4:55 am 04:55 Clear 51 10.3 43 6 75 75 S 16 26 29.56 1001 10 16 N/A
5:15 am 05:15 Clear 50 10.1 42 5.8 75 75 S 17 28 29.56 1001 10 16 N/A
5:35 am 05:35 Clear 50 10.1 42 5.8 75 75 S 16 26 29.56 1001 10 16 N/A
5:55 am 05:55 Clear 50 10 42 5.8 75 75 S 16 26 29.53 1000 10 16 N/A
6:15 am 06:15 Sunny 50 9.8 43 5.9 77 77 S 18 30 29.53 1000 10 16 N/A
6:35 am 06:35 Sunny 49 9.7 43 6 78 78 SSE 15 24 29.53 1000 10 16 N/A
6:55 am 06:55 Sunny 50 9.9 43 6 77 77 SSE 16 26 29.53 1000 10 16 N/A
7:15 am 07:15 Sunny 50 10.2 43 6 75 75 S 17 28 29.56 1001 10 16 N/A
7:35 am 07:35 Sunny 51 10.8 43 6.1 73 73 S 16 26 29.56 1001 10 16 N/A
7:55 am 07:55 Sunny 52 11.3 43 6.1 71 71 S 20 31 29.53 1000 10 16 N/A
8:15 am 08:15 Sunny 54 12 44 6.4 69 69 S 16 26 29.50 999 10 16 N/A
8:35 am 08:35 Sunny 55 12.7 44 6.5 66 66 S 15 24 29.53 1000 10 16 N/A
8:55 am 08:55 Sunny 57 13.8 44 6.7 62 62 S 21 33 29.50 999 10 16 N/A
9:15 am 09:15 Sunny 57 14.1 44 6.8 62 62 S 18 30 29.53 1000 10 16 N/A
9:35 am 09:35 Sunny 59 15.1 45 7 59 59 S 17 28 29.53 1000 10 16 N/A
9:55 am 09:55 Sunny 60 15.4 45 7.3 59 59 S 18 30 29.50 999 10 16 N/A
10:15 am 10:15 Sunny 60 15.4 45 7.3 59 59 S 18 30 29.50 999 10 16 N/A
10:35 am 10:35 Sunny 61 15.9 45 7.2 57 57 S 18 30 29.47 998 10 16 N/A
10:55 am 10:55 Sunny 62 16.6 46 7.7 56 56 S 16 26 29.47 998 10 16 N/A
11:15 am 11:15 Sunny 64 17.5 47 8.1 54 54 SSW 18 30 29.47 998 10 16 N/A
11:35 am 11:35 Sunny 63 17.4 47 8.3 55 55 S 16 26 29.47 998 10 16 N/A
11:55 am 11:55 Sunny 66 18.9 47 8.5 51 51 S 14 22 29.44 997 10 16 N/A
12:15 pm 12:15 Sunny 66 19 48 8.7 51 51 S 13 20 29.44 997 10 16 N/A
12:35 pm 12:35 Sunny 66 19.1 48 8.9 52 52 SSE 14 22 29.41 996 10 16 N/A
12:55 pm 12:55 Sunny 66 19 47 8.5 51 51 S 9 15 29.44 997 10 16 N/A
1:15 pm 13:15 Sunny 67 19.3 48 8.7 50 50 S 10 17 29.44 997 10 16 N/A
1:35 pm 13:35 Sunny 67 19.3 48 9 51 51 S 13 20 29.44 997 10 16 N/A
1:55 pm 13:55 Sunny 67 19.6 48 9.1 51 51 S 12 19 29.44 997 10 16 N/A
2:15 pm 14:15 Sunny 70 20.9 49 9.6 49 49 S 9 15 29.41 996 10 16 N/A
2:35 pm 14:35 Sunny 70 21.1 50 10.1 50 50 S 7 11 29.44 997 10 16 N/A
2:55 pm 14:55 Sunny 71 21.7 51 10.7 50 50 S 6 9 29.44 997 10 16 N/A
3:15 pm 15:15 Sunny 72 22.2 50 9.9 46 46 SSE 7 11 29.41 996 10 16 N/A
3:35 pm 15:35 Sunny 73 22.8 51 10.4 46 46 SSW 6 9 29.41 996 10 16 N/A
3:55 pm 15:55 Sunny 74 23.1 50 10 44 44 SSE 13 20 29.38 995 10 16 N/A
4:15 pm 16:15 Sunny 74 23.4 50 10.1 43 43 SSE 9 15 29.38 995 10 16 N/A
4:35 pm 16:35 Sunny 75 23.9 50 10 41 41 SSE 5 7 29.38 995 10 16 N/A
4:55 pm 16:55 Sunny 76 24.4 51 10.3 41 41 SSW 6 9 29.38 995 10 16 N/A
5:15 pm 17:15 Sunny 76 24.5 50 9.9 40 40 SSW 3 6 29.38 995 10 16 N/A
5:35 pm 17:35 Sunny 75 24 51 10.4 42 42 N N/A 29.41 996 10 16 N/A
5:55 pm 17:55 Sunny 75 23.8 52 10.9 44 44 W 6 9 29.41 996 10 16 N/A
6:15 pm 18:15 Sunny 75 23.7 51 10.3 43 43 N N/A 29.44 997 10 16 N/A
6:35 pm 18:35 Sunny 75 23.7 51 10.8 44 44 WNW 3 6 29.44 997 10 16 N/A
6:55 pm 18:55 Sunny 74 23.6 51 10.7 44 44 NNW 5 7 29.44 997 10 16 N/A
7:15 pm 19:15 Sunny 73 23 50 10.1 44 44 NNW 13 20 29.44 997 10 16 N/A
7:35 pm 19:35 Sunny 73 22.5 51 10.6 47 47 N 9 15 29.44 997 10 16 N/A
7:55 pm 19:55 Sunny 71 21.7 53 11.4 52 52 NE 9 15 29.50 999 10 16 N/A
8:15 pm 20:15 Partly Cloudy 71 21.4 52 11.1 52 52 N N/A 29.50 999 10 16 N/A
8:35 pm 20:35 Mostly Cloudy 70 21.1 52 11.3 54 54 ESE 6 9 29.53 1000 10 16 N/A
8:55 pm 20:55 Cloudy 68 19.9 54 12.1 61 61 WSW 3 6 29.53 1000 10 16 N/A
9:15 pm 21:15 Cloudy with Light Rain 69 20.4 55 12.6 61 61 SW 5 7 29.56 1001 10 16 N/A
9:35 pm 21:35 Partly Cloudy with Nearby Thunderstorms 67 19.6 55 12.7 65 65 SW 5 7 29.59 1002 10 16 N/A
9:55 pm 21:55 Partly Cloudy 67 19.6 55 12.7 65 65 SW 7 11 29.59 1002 10 16 N/A
10:15 pm 22:15 Partly Cloudy with Light Rain 66 19 56 13.5 71 71 S 6 9 29.59 1002 10 16 N/A
10:35 pm 22:35 Partly Cloudy with Light Rain 65 18.3 57 13.7 75 75 SSE 6 9 29.59 1002 10 16 N/A
10:55 pm 22:55 Mostly Cloudy with Light Rain 65 18.1 57 13.7 76 76 N N/A 29.59 1002 10 16 N/A
11:15 pm 23:15 Mostly Cloudy with Light Rain 63 17.1 58 14.4 84 84 NE 7 11 29.56 1001 10 16 N/A
11:35 pm 23:35 Partly Cloudy 62 16.6 58 14.4 87 87 NNE 7 11 29.56 1001 10 16 N/A
11:55 pm 23:55 Clear 63 17 58 14.2 84 84 E 7 11 29.56 1001 10 16 N/A

Powered by AerisWeather